sat.trackr.live / text

‹ back to catalog

ONEWEB-0409

NORAD 50488 · 2021-132V

PAYLOAD ACTIVE UNKNOWN

§ Identity

Operator
Country
UK
Launch date
2021-12-27
Launch site
TYMSC
Launch vehicle
Mass (kg)
RCS (m²)

Purposes: comms

External: N2YO · Heavens-Above · Gunter

§ Orbital elements

Epoch: 2026-05-25T03:15:14.987232Z

Period
109.81 min
Inclination
87.8914°
Eccentricity
0.0001931
Mean motion
13.11414285 rev/d
Perigee alt
1,216.2 km
Apogee alt
1,219.2 km
Semi-major
7,595.8 km
B*
1.7067e-4
RAAN
25.6403°
Arg perigee
90.3102°
Mean anomaly
269.8247°
Rev number
21,256

§ Raw data

ONEWEB-04091 50488U 21132V   26145.13559013  .00000073  00000+0  17067-3 0  99922 50488  87.8914  25.6403 0001931  90.3102 269.8247 13.11414285212567

JSON: /api/v1/satellites/50488 · /tle

For live sub-satellite position, see the globe view (requires WebGL).

§ Visibility from observer

Set your observer location to see the next 7 days of passes ≥ 10°. The values pass through the URL so the page stays shareable.

No JS? Fill the form by hand. The geolocation button needs JavaScript.